Location: *
(58.4167°N, 22.5000°E)
Time: 01:29:04
(UTC+00:00)

NOSS 2-1 (C) - Pass Details

Date: 22 September 2019
Orbit: 462 x 1742 km, 63.3° (Epoch: 06 October)

Event Time Altitude Azimuth Distance (km) Brightness Sun altitude
Rises 20:37:59 0° 302° (WNW) 2,861 7.9 -27.9°
Reaches altitude 10° 20:39:57 10° 301° (WNW) 2,075 7.0 -28.0°
Enters shadow 20:44:04 71° 283° (WNW) 833 4.1 -28.3°
